Regional Weather Roundup
Issued by NWS New Orleans/Baton Rouge, LA

Home | Current Version | Previous Version | Text Only | Print | Product List | Glossary Off
Versions: 1 2 3 4 5 6 7 8 9 10 11 12 13 14 15 16 17 18 19 20 21 22 23 24 25 26 27 28 29 30 31 32 33 34 35 36 37 38 39 40 41 42 43 44 45 46 47 48 49 50

075
ASUS44 KLIX 271005
RWRLIX
NEW ORLEANS REGIONAL WEATHER ROUNDUP
NATIONAL WEATHER SERVICE NEW ORLEANS LA
400 AM CST FRI FEB 27 2015

NOTE: "FAIR" INDICATES FEW OR NO CLOUDS BELOW 12,000 FEET WITH NO
      SIGNIFICANT WEATHER AND/OR OBSTRUCTIONS TO VISIBILITY.
      SKY/WX - SKY CONDITION AND SIGNIFICANT WEATHER.
      TMP - AIR TEMPERATURE.     DP    - DEWPOINT TEMPERATURE.
      RH  - RELATIVE HUMIDITY.   PRES  - PRESSURE.
      HI  - HEAT INDEX.          WCI   - WIND CHILL INDEX.

*  THESE STATIONS ARE NOT NWS OR FAA STATIONS AND ARE NOT UNDER
   NWS QUALITY CONTROL.

LAZ038-040-048-061>063-065>067-069-271100-
SOUTHEAST LOUISIANA

CITY           SKY/WX    TMP DP  RH WIND       PRES   REMARKS
N.O. AUDUBON     N/A     37  32  82 MISG        N/A
N.O. INTL ARPT CLOUDY    37  30  75 NE17      30.33S WCI  27
N.O. LAKEFRONT MOCLDY    39  32  76 NE17      30.34S WCI  30
SLIDELL        CLEAR     32  29  88 NE7       30.33S WCI  26
BATON ROUGE    CLOUDY    36  29  75 N8        30.34R WCI  30
BOOTHVILLE     CLOUDY    44  36  73 N10G21    30.30R
BELLE CHASSE   PTCLDY    37  29  72 NE12      30.33R WCI  29
BOGALUSA*        N/A     32  29  90 CALM      30.35S
GALLIANO*      PTSUNNY   40  34  79 N13G18    30.31S WCI  32
NEW ROADS*     CLOUDY    35  28  78 N9        30.36R WCI  27
GONZALES*        N/A     34  31  88 MISG      30.30F
HAMMOND*       CLEAR     34  28  80 CALM      30.35R
HOUMA*         CLOUDY    36  32  84 N12       30.32R WCI  28
PORT FOURCHON* PTSUNNY   41  36  81 NE21G28   30.32S

$$

MSZ070-080>082-271100-
SOUTHERN MISSISSIPPI

CITY           SKY/WX    TMP DP  RH WIND       PRES   REMARKS
MCCOMB         CLOUDY    34  27  75 NE9       30.31F WCI  27
GULFPORT       CLEAR     33  28  81 N8        30.33S WCI  26
BILOXI         PTCLDY    34  30  87 N10       30.32S WCI  26
PASCAGOULA     PTCLDY    34  30  85 N10       30.32S WCI  26

$$

COASTAL OBSERVATIONS
LAKE AND NEARSHORE STATIONS

STATION/POSITION TIME  TEMP    WIND        PRES    WAVE
                       AIR SEA DIR/SP/G            HT/PER
                 (UTC) (F)     (DEG/KT/KT) (MB)    (FT/S)
PASCAGOULA       1000   36     360/ 12/ 15 1026.2
WAVELAND YACHT   1000   35 47   10/ 11/ 15 1026.8
GRAND ISLE       1000   41 52   40/ 15/ 22 1026.2
SOUTHWEST PASS   1000   49 48   30/ 25/ 28 1025.2
NEW CANAL        1000   38      30/ 18/ 22 1027.1
SHELL BEACH      1000   38 49   10/ 23/ 27 1026.8

OFFSHORE STATIONS

STATION/POSITION TIME  TEMP    WIND        PRES    WAVE
                       AIR SEA DIR/SP/G            HT/PER
                 (UTC) (F)     (DEG/KT/KT) (MB)    (FT/S)
64 S DAUPHIN ISL 0906   48 64   30/ 21/ 27 1024.5    6/ 6

$$




USA.gov is the U.S. government's official web portal to all federal, state and local government web resources and services.